CW5217 Weather Reports


time (UTC)temp
C
wind
direction
speed
KPH
gust
KPH
rain 1hr
cm
rain 24hr
cm
rain mn
cm
humidity
%
barometer
mb
20260505224352 24 98 1.6 14.5 0.00 0.00 0.00 40 1009.0
20260505223849 24 282 8.0 16.1 0.00 0.00 0.00 38 1009.0
20260505223346 24 114 1.6 4.8 0.00 0.00 0.00 42 1009.0
20260505222842 24 186 8.0 9.7 0.00 0.00 0.00 39 1008.7
20260505222338 24 319 6.4 11.3 0.00 0.00 0.00 41 1008.7
20260505221835 24 125 0.0 3.2 0.00 0.00 0.00 40 1008.8
20260505221332 24 119 4.8 6.4 0.00 0.00 0.00 40 1008.8
20260505220829 24 94 1.6 4.8 0.00 0.00 0.00 40 1008.9
20260505220326 25 133 3.2 6.4 0.00 0.00 0.00 40 1009.0
20260505215824 25 100 3.2 9.7 0.00 0.00 0.00 41 1008.9
20260505215322 25 203 4.8 14.5 0.00 0.00 0.00 38 1009.0
20260505214820 25 107 1.6 9.7 0.00 0.00 0.00 40 1008.9
20260505214317 25 141 1.6 14.5 0.00 0.00 0.00 38 1009.1
20260505213813 25 108 3.2 11.3 0.00 0.00 0.00 40 1008.8
20260505213312 25 323 4.8 6.4 0.00 0.00 0.00 37 1008.9
20260505212807 25 82 4.8 9.7 0.00 0.00 0.00 38 1008.8
20260505212306 25 256 3.2 12.9 0.00 0.00 0.00 38 1008.7
20260505211800 25 319 3.2 6.4 0.00 0.00 0.00 37 1008.7
20260505211259 25 129 0.0 4.8 0.00 0.00 0.00 38 1008.8
20260505210754 25 72 3.2 6.4 0.00 0.00 0.00 38 1008.7
20260505210252 25 194 1.6 9.7 0.00 0.00 0.00 37 1008.5
20260505205749 25 221 6.4 9.7 0.00 0.00 0.00 37 1008.6
20260505205247 25 59 0.0 4.8 0.00 0.00 0.00 40 1008.6
20260505204743 25 114 0.0 11.3 0.00 0.00 0.00 38 1008.3
20260505204241 25 84 3.2 4.8 0.00 0.00 0.00 37 1008.4
20260505203738 26 221 0.0 22.5 0.00 0.00 0.00 35 1008.5
20260505203235 26 330 9.7 14.5 0.00 0.00 0.00 34 1008.4
20260505202731 26 153 4.8 12.9 0.00 0.00 0.00 35 1008.6
20260505202227 26 105 4.8 6.4 0.00 0.00 0.00 34 1008.6
20260505201724 26 25 3.2 14.5 0.00 0.00 0.00 33 1008.5
20260505201222 26 205 6.4 12.9 0.00 0.00 0.00 34 1008.7
20260505200719 26 145 1.6 3.2 0.00 0.00 0.00 33 1008.7
20260505200216 26 99 1.6 9.7 0.00 0.00 0.00 33 1008.6
20260505195712 26 234 1.6 9.7 0.00 0.00 0.00 32 1008.8
20260505195209 27 180 4.8 11.3 0.00 0.00 0.00 32 1008.7
20260505194707 27 229 3.2 4.8 0.00 0.00 0.00 32 1008.6
20260505194203 27 167 3.2 11.3 0.00 0.00 0.00 31 1008.5
20260505193659 27 230 4.8 6.4 0.00 0.00 0.00 32 1008.6
20260505193156 27 141 3.2 6.4 0.00 0.00 0.00 30 1008.6
20260505192655 27 83 3.2 9.7 0.00 0.00 0.00 31 1008.8
20260505192152 27 290 6.4 11.3 0.00 0.00 0.00 31 1008.6
20260505191650 27 212 3.2 3.2 0.00 0.00 0.00 32 1008.6
20260505191148 27 140 1.6 12.9 0.00 0.00 0.00 33 1008.7
20260505190644 27 116 4.8 4.8 0.00 0.00 0.00 33 1008.9
20260505190144 27 309 4.8 9.7 0.00 0.00 0.00 32 1008.7
20260505185641 27 127 6.4 9.7 0.00 0.00 0.00 31 1009.1
20260505185137 27 83 1.6 4.8 0.00 0.00 0.00 32 1008.8
20260505184634 28 120 6.4 17.7 0.00 0.00 0.00 33 1009.0
20260505184131 27 134 3.2 6.4 0.00 0.00 0.00 32 1009.1
20260505183627 27 264 3.2 11.3 0.00 0.00 0.00 33 1009.1
20260505183125 26 96 3.2 12.9 0.00 0.00 0.00 37 1009.3
20260505182621 27 91 3.2 4.8 0.00 0.00 0.00 35 1009.4
20260505182118 27 14 4.8 12.9 0.00 0.00 0.00 34 1009.3
20260505181615 26 55 4.8 9.7 0.00 0.00 0.00 38 1009.3
20260505181112 26 271 12.9 17.7 0.00 0.00 0.00 37 1009.5
20260505180608 27 272 8.0 11.3 0.00 0.00 0.00 36 1009.5
20260505180106 27 107 0.0 3.2 0.00 0.00 0.00 36 1009.6
20260505175601 26 176 6.4 6.4 0.00 0.00 0.00 39 1009.8
20260505175058 26 134 3.2 9.7 0.00 0.00 0.00 39 1009.6
20260505174555 26 7 3.2 11.3 0.00 0.00 0.00 38 1009.7
20260505174050 27 176 0.0 16.1 0.00 0.00 0.00 38 1009.7
20260505173548 26 336 4.8 14.5 0.00 0.00 0.00 37 1009.9
20260505173044 26 91 1.6 4.8 0.00 0.00 0.00 38 1009.7
20260505172542 26 321 1.6 11.3 0.00 0.00 0.00 39 1009.8
20260505172038 25 153 3.2 11.3 0.00 0.00 0.00 39 1009.8
20260505171533 26 272 6.4 11.3 0.00 0.00 0.00 39 1009.9
20260505171030 26 348 8.0 12.9 0.00 0.00 0.00 40 1009.8
20260505170527 26 82 3.2 6.4 0.00 0.00 0.00 39 1010.0
20260505170024 26 90 3.2 6.4 0.00 0.00 0.00 42 1010.1
20260505165519 26 82 1.6 9.7 0.00 0.00 0.00 41 1010.1
20260505165015 25 263 9.7 12.9 0.00 0.00 0.00 40 1010.5
20260505164511 26 80 3.2 9.7 0.00 0.00 0.00 42 1010.2
20260505164009 26 126 1.6 6.4 0.00 0.00 0.00 45 1010.4
20260505163508 25 100 1.6 3.2 0.00 0.00 0.00 45 1010.4
20260505163004 25 286 4.8 12.9 0.00 0.00 0.00 43 1010.6
20260505162457 25 155 0.0 3.2 0.00 0.00 0.00 45 1010.5
20260505161953 25 264 9.7 11.3 0.00 0.00 0.00 44 1010.5
20260505161450 24 133 1.6 4.8 0.00 0.00 0.00 47 1010.7
20260505160947 25 353 3.2 3.2 0.00 0.00 0.00 45 1010.5
20260505160446 24 206 4.8 6.4 0.00 0.00 0.00 45 1010.6
20260505152922 23 88 1.6 3.2 0.00 0.00 0.00 51 1010.9
20260505152419 23 133 3.2 4.8 0.00 0.00 0.00 51 1010.9
20260505151913 22 151 1.6 1.6 0.00 0.00 0.00 54 1010.9
20260505151410 22 87 1.6 3.2 0.00 0.00 0.00 55 1011.1
20260505150907 21 138 3.2 3.2 0.00 0.00 0.00 56 1011.2
20260505150404 21 271 3.2 4.8 0.00 0.00 0.00 59 1011.1
20260505140328 18 159 1.6 3.2 0.00 0.00 0.00 67 1011.8
20260505130251 16 106 1.6 3.2 0.00 0.00 0.00 73 1011.6
20260505124742 15 89 0.0 0.0 0.00 0.00 0.00 74 1011.6
20260505124239 15 80 1.6 1.6 0.00 0.00 0.00 74 1011.7
20260505123734 15 99 1.6 1.6 0.00 0.00 0.00 75 1011.7
20260505123231 15 136 1.6 1.6 0.00 0.00 0.00 77 1011.7
20260505122728 15 94 0.0 1.6 0.00 0.00 0.00 75 1011.6
20260505122225 15 144 1.6 3.2 0.00 0.00 0.00 75 1011.5
20260505121722 15 158 1.6 4.8 0.00 0.00 0.00 76 1011.6
20260505121218 15 190 4.8 6.4 0.00 0.00 0.00 76 1011.5
20260505120715 14 97 0.0 0.0 0.00 0.00 0.00 78 1011.2
20260505120211 14 106 0.0 0.0 0.00 0.00 0.00 78 1011.3
20260505115710 14 98 0.0 0.0 0.00 0.00 0.00 79 1011.1
20260505115208 14 97 0.0 0.0 0.00 0.00 0.00 78 1011.1
20260505114705 13 101 0.0 0.0 0.00 0.00 0.00 78 1011.3
20260505114201 13 100 0.0 0.0 0.00 0.00 0.00 79 1011.3
20260505113658 13 102 0.0 0.0 0.00 0.00 0.00 79 1011.3
20260505113154 13 101 0.0 1.6 0.00 0.00 0.00 81 1011.3
20260505112651 13 113 0.0 1.6 0.00 0.00 0.00 81 1011.3
20260505112149 13 99 0.0 0.0 0.00 0.00 0.00 83 1011.5
20260505111648 13 100 0.0 0.0 0.00 0.00 0.00 83 1011.5
20260505111144 12 102 0.0 0.0 0.00 0.00 0.00 84 1011.5
20260505110640 12 96 0.0 0.0 0.00 0.00 0.00 83 1011.2
20260505110138 12 99 0.0 0.0 0.00 0.00 0.00 85 1011.3
20260505102114 12 106 0.0 0.0 0.00 0.00 0.00 88 1011.0
20260505101612 12 102 0.0 0.0 0.00 0.00 0.00 90 1010.8
20260505101108 12 99 0.0 0.0 0.00 0.00 0.00 88 1010.6
20260505100604 13 90 0.0 0.0 0.00 0.00 0.00 85 1010.6
20260505095558 14 118 1.6 1.6 0.00 0.00 0.00 76 1010.9
20260505095054 14 118 1.6 1.6 0.00 0.00 0.00 76 1010.7
20260505094551 14 113 0.0 0.0 0.00 0.00 0.00 77 1010.7
20260505094047 13 51 1.6 3.2 0.00 0.00 0.00 78 1010.8
20260505093543 14 119 1.6 3.2 0.00 0.00 0.00 76 1010.9
20260505093041 14 45 3.2 4.8 0.00 0.00 0.00 74 1011.3
20260505092538 14 249 8.0 9.7 0.00 0.00 0.00 73 1011.0
20260505092037 14 273 6.4 9.7 0.00 0.00 0.00 68 1010.9
20260505091533 14 182 3.2 3.2 0.00 0.00 0.00 69 1010.8
20260505091031 14 119 1.6 1.6 0.00 0.00 0.00 68 1010.8
20260505090529 13 354 3.2 3.2 0.00 0.00 0.00 71 1010.9
20260505090027 13 63 1.6 1.6 0.00 0.00 0.00 71 1010.8
20260505085524 14 237 4.8 6.4 0.00 0.00 0.00 67 1010.7
20260505085022 14 237 4.8 6.4 0.00 0.00 0.00 67 1010.6
20260505084520 14 105 3.2 3.2 0.00 0.00 0.00 68 1010.7
20260505084018 13 156 1.6 3.2 0.00 0.00 0.00 70 1010.8
20260505083515 13 79 1.6 1.6 0.00 0.00 0.00 70 1010.5
20260505083011 13 79 1.6 1.6 0.00 0.00 0.00 70 1010.4
20260505082507 13 180 1.6 4.8 0.00 0.00 0.00 71 1010.4
20260505082004 13 103 0.0 0.0 0.00 0.00 0.00 69 1010.1
20260505081501 13 116 1.6 1.6 0.00 0.00 0.00 68 1010.2
20260505080957 13 20 3.2 3.2 0.00 0.00 0.00 69 1010.3
20260505080454 13 20 3.2 6.4 0.00 0.00 0.00 69 1010.3
20260505075949 13 110 1.6 1.6 0.00 0.00 0.00 69 1010.3
20260505075446 13 110 1.6 1.6 0.00 0.00 0.00 69 1010.4
20260505074943 13 99 0.0 0.0 0.00 0.00 0.00 69 1010.3
20260505074441 14 182 3.2 3.2 0.00 0.00 0.00 66 1010.4
20260505073938 14 152 3.2 4.8 0.00 0.00 0.00 65 1010.6
20260505073436 14 175 3.2 3.2 0.00 0.00 0.00 66 1010.3
20260505072932 14 76 1.6 1.6 0.00 0.00 0.00 67 1010.2
20260505072429 14 189 4.8 6.4 0.00 0.00 0.00 65 1010.2
20260505071925 14 130 3.2 3.2 0.00 0.00 0.00 67 1010.5
20260505071421 14 123 1.6 1.6 0.00 0.00 0.00 63 1010.2
20260505070919 14 123 1.6 1.6 0.00 0.00 0.00 63 1010.3
20260505070415 14 125 3.2 4.8 0.00 0.00 0.00 63 1010.4
20260505065911 14 117 1.6 1.6 0.00 0.00 0.00 65 1010.4
20260505065408 14 95 0.0 0.0 0.00 0.00 0.00 64 1010.5
20260505064905 14 95 0.0 0.0 0.00 0.00 0.00 64 1010.4
20260505064402 14 112 0.0 1.6 0.00 0.00 0.00 63 1010.5
20260505063900 14 150 0.0 1.6 0.00 0.00 0.00 63 1010.5
20260505063356 14 110 0.0 0.0 0.00 0.00 0.00 64 1010.5
20260505062852 14 101 1.6 1.6 0.00 0.00 0.00 62 1010.4
20260505062349 14 101 1.6 1.6 0.00 0.00 0.00 62 1010.4
20260505061846 14 113 1.6 3.2 0.00 0.00 0.00 64 1010.6
20260505061344 14 106 1.6 3.2 0.00 0.00 0.00 61 1010.5
20260505060842 15 137 1.6 1.6 0.00 0.00 0.00 61 1010.4
20260505060338 14 158 3.2 3.2 0.00 0.00 0.00 61 1010.5
20260505055834 14 263 1.6 6.4 0.00 0.00 0.00 63 1010.6
20260505055330 14 106 1.6 1.6 0.00 0.00 0.00 61 1010.4
20260505054828 14 113 0.0 1.6 0.00 0.00 0.00 62 1010.3
20260505054325 14 94 0.0 1.6 0.00 0.00 0.00 60 1010.5
20260505053823 14 120 1.6 3.2 0.00 0.00 0.00 62 1010.6
20260505053320 14 102 1.6 1.6 0.00 0.00 0.00 62 1010.3
20260505052816 13 94 0.0 1.6 0.00 0.00 0.00 62 1010.5
20260505052313 13 101 0.0 1.6 0.00 0.00 0.00 62 1010.5
20260505051811 14 114 1.6 1.6 0.00 0.00 0.00 61 1010.6
20260505051308 13 98 0.0 1.6 0.00 0.00 0.00 61 1010.5
20260505050806 13 92 0.0 0.0 0.00 0.00 0.00 61 1010.3
20260505050305 13 93 1.6 1.6 0.00 0.00 0.00 60 1010.3
20260505041734 15 103 1.6 3.2 0.00 0.00 0.00 57 1010.6
20260505041231 15 99 0.0 1.6 0.00 0.00 0.00 57 1010.5
20260505040729 15 97 0.0 3.2 0.00 0.00 0.00 57 1010.6
20260505040226 15 103 0.0 1.6 0.00 0.00 0.00 57 1010.7
20260505035723 15 106 1.6 1.6 0.00 0.00 0.00 56 1010.5
20260505035219 15 107 1.6 3.2 0.00 0.00 0.00 55 1010.6
20260505034716 15 112 1.6 1.6 0.00 0.00 0.00 55 1010.6
20260505034213 15 111 0.0 0.0 0.00 0.00 0.00 55 1010.5
20260505033709 15 98 0.0 0.0 0.00 0.00 0.00 54 1010.6
20260505033208 15 99 0.0 0.0 0.00 0.00 0.00 56 1010.6
20260505032705 15 96 0.0 1.6 0.00 0.00 0.00 56 1010.6
20260505032201 15 103 0.0 0.0 0.00 0.00 0.00 55 1010.6
20260505031658 15 92 1.6 1.6 0.00 0.00 0.00 55 1010.6
20260505031154 15 104 1.6 1.6 0.00 0.00 0.00 54 1010.8
20260505030651 15 96 1.6 1.6 0.00 0.00 0.00 54 1010.8
20260505030146 15 114 3.2 3.2 0.00 0.00 0.00 54 1010.7
20260505025643 15 97 0.0 1.6 0.00 0.00 0.00 54 1010.7
20260505025142 15 103 1.6 1.6 0.00 0.00 0.00 54 1010.7
20260505024639 15 98 0.0 0.0 0.00 0.00 0.00 53 1010.8
20260505024136 15 108 1.6 1.6 0.00 0.00 0.00 53 1010.8
20260505023634 15 123 3.2 4.8 0.00 0.00 0.00 53 1010.8
20260505023131 15 94 0.0 0.0 0.00 0.00 0.00 53 1010.9
20260505022628 15 93 0.0 0.0 0.00 0.00 0.00 52 1010.8
20260505022125 15 97 0.0 0.0 0.00 0.00 0.00 53 1010.8
20260505021622 15 94 0.0 0.0 0.00 0.00 0.00 53 1010.8
20260505021118 15 99 0.0 0.0 0.00 0.00 0.00 54 1011.0
20260505020613 15 97 0.0 0.0 0.00 0.00 0.00 52 1010.9
20260505020110 15 100 0.0 0.0 0.00 0.00 0.00 53 1010.8
20260505015607 15 95 0.0 0.0 0.00 0.00 0.00 52 1010.7
20260505015104 15 98 0.0 0.0 0.00 0.00 0.00 52 1010.9
20260505014600 15 97 0.0 0.0 0.00 0.00 0.00 54 1010.8
20260505014058 15 94 0.0 0.0 0.00 0.00 0.00 53 1010.8
20260505013555 16 91 0.0 0.0 0.00 0.00 0.00 52 1010.8
20260505013052 16 91 0.0 0.0 0.00 0.00 0.00 52 1010.9
20260505012550 16 95 0.0 0.0 0.00 0.00 0.00 51 1010.6
20260505012047 16 99 0.0 0.0 0.00 0.00 0.00 53 1010.7
20260505011542 16 101 0.0 0.0 0.00 0.00 0.00 53 1010.6
20260505011040 16 94 0.0 0.0 0.00 0.00 0.00 52 1010.6
20260505010535 16 101 1.6 1.6 0.00 0.00 0.00 50 1010.4
20260505010032 16 99 0.0 0.0 0.00 0.00 0.00 51 1010.5
20260505005528 16 95 0.0 0.0 0.00 0.00 0.00 51 1010.5
20260505005026 16 96 0.0 0.0 0.00 0.00 0.00 51 1010.5
20260505004523 16 92 0.0 0.0 0.00 0.00 0.00 50 1010.3
20260505004019 16 87 0.0 0.0 0.00 0.00 0.00 50 1010.2
20260505003517 16 96 0.0 0.0 0.00 0.00 0.00 52 1010.3
20260505003014 16 110 0.0 1.6 0.00 0.00 0.00 51 1010.3
20260505002509 16 88 0.0 1.6 0.00 0.00 0.00 51 1010.2
20260505002008 16 94 0.0 0.0 0.00 0.00 0.00 51 1010.3
20260505001505 17 99 0.0 1.6 0.00 0.00 0.00 51 1010.1
20260505001002 17 98 0.0 0.0 0.00 0.00 0.00 50 1010.2
20260505000459 17 95 0.0 0.0 0.00 0.00 0.00 50 1010.1
20260504235956 17 87 1.6 1.6 0.00 0.00 0.00 49 1010.1
20260504235453 17 95 0.0 1.6 0.00 0.00 0.00 50 1010.0
20260504234950 17 95 0.0 0.0 0.00 0.00 0.00 50 1010.0
20260504234447 17 100 0.0 0.0 0.00 0.00 0.00 49 1009.8
20260504233943 17 93 3.2 3.2 0.00 0.00 0.00 47 1009.9
20260504233439 18 96 0.0 3.2 0.00 0.00 0.00 47 1009.6
20260504232936 18 101 0.0 1.6 0.00 0.00 0.00 47 1009.6
20260504232433 18 96 0.0 0.0 0.00 0.00 0.00 46 1009.7
20260504231931 18 93 0.0 0.0 0.00 0.00 0.00 47 1009.5
20260504231427 18 106 0.0 4.8 0.00 0.00 0.00 44 1009.4
20260504230923 18 106 4.8 6.4 0.00 0.00 0.00 44 1009.4
20260504230420 18 94 0.0 0.0 0.00 0.00 0.00 47 1009.4
20260504225919 18 98 1.6 1.6 0.00 0.00 0.00 45 1009.5
20260504225415 19 106 1.6 1.6 0.00 0.00 0.00 44 1009.2
20260504224913 19 107 0.0 1.6 0.00 0.00 0.00 43 1009.3